Regional Weather Roundup
Issued by NWS

Home | Current Version | Previous Version | Graphics & Text | Print | Product List | Glossary On
Versions: 1 2 3 4 5 6 7 8 9 10 11 12 13 14 15 16 17 18 19 20 21 22 23 24 25 26 27 28 29 30 31 32 33 34 35 36 37 38 39 40 41 42 43 44 45 46 47 48 49 50
579
ASUS43 KTOP 241408
RWRKS

WEATHER ROUNDUP FOR KANSAS
NATIONAL WEATHER SERVICE GOODLAND KS
900 AM CDT FRI MAR 24 2017

NOTE:  "FAIR" INDICATES FEW OR NO CLOUDS BELOW 12,000 FEET WITH NO
SIGNIFICANT WEATHER AND/OR OBSTRUCTIONS TO VISIBILITY.

KSZ001>006-013>018-027>032-041>047-241500-
NORTHWEST KANSAS

CITY           SKY/WX    TMP DP  RH WIND       PRES   REMARKS
GOODLAND       TSTM      44  44 100 NE33G49   29.71R FOG
HAYS             N/A     56  45  66 S12       29.70R
HILL CITY      CLOUDY    56  55  97 E13       29.72R
RUSSELL        CLOUDY    60  43  53 S14       29.69R
$$

KSZ061>065-074>080-084>089-241500-
SOUTHWEST KANSAS

CITY           SKY/WX    TMP DP  RH WIND       PRES   REMARKS
DODGE CITY     SUNNY     49  41  74 SE14      29.67R
ELKHART          N/A     42  31  65 NE12        N/A
GARDEN CITY    SUNNY     48  37  65 SE15      29.64R
GREAT BEND     SUNNY     56  41  57 S6        29.71R
LIBERAL        SUNNY     46  32  57 SE10      29.58R
PRATT          SUNNY     56  37  48 S12       29.71
$$

KSZ066>073-081>083-090>101-241500-
SOUTHEAST KANSAS

CITY           SKY/WX    TMP DP  RH WIND       PRES   REMARKS
CHANUTE        LGT RAIN  64  50  60 S21G32    29.82R
COFFEYVILLE    CLOUDY    66  51  58 S21G33    29.83R
HUTCHINSON     SUNNY     65  49  56 S24G35    29.70R
MEDICINE LODGE   N/A     61  39  44 S14G22    29.70R
NEWTON         SUNNY     64  49  57 S22G29    29.73R
PARSONS        CLOUDY    66  49  54 S21G30    29.83S
WICHITA INTL   MOSUNNY   65  50  58 SE17      29.72R
WICHITA JABRA  SUNNY     65  50  58 S18G28    29.73R
WICHITA MCCONL SUNNY     65  49  56 S20G29    29.74R
WINFIELD       SUNNY     66  52  60 S22G28    29.77R
$$

KSZ007>012-019>026-033>040-048>060-102>105-241500-
NORTHEAST KANSAS

CITY           SKY/WX    TMP DP  RH WIND       PRES   REMARKS
CONCORDIA      CLOUDY    61  48  62 CALM      29.74R
EMPORIA        CLOUDY    65  47  52 S20G32    29.75R
LAWRENCE       CLOUDY    64  46  52 SE9G18    29.80R
MANHATTAN      PTSUNNY   67  45  45 S8        29.74R
MARYSVILLE     PTSUNNY   59  52  77 SE7       29.77R
OLATHE IND     CLOUDY    67  41  38 S16G25    29.80R
OLATHE EXE     PTSUNNY   66  42  41 S20G31    29.80R
SALINA         PTSUNNY   69  48  47 S24G31    29.70R
TOPEKA BILLARD CLOUDY    66  44  45 S8        29.77R
TOPEKA FORBES  PTSUNNY   66  45  46 S20G28    29.75R
$$




USA.gov is the U.S. government's official web portal to all federal, state and local government web resources and services.